W4DHW-4 Weather Reports


time (UTC)temp
C
wind
direction
speed
KPH
gust
KPH
rain 1hr
cm
rain 24hr
cm
rain mn
cm
humidity
%
barometer
mb
20260510104630 7 294 1.6 1.6 0.00 0.00 0.00 97 1014.9
20260510104126 6 270 1.6 1.6 0.00 0.00 0.00 97 1014.9
20260510103623 6 316 1.6 3.2 0.00 0.00 0.00 97 1014.9
20260510103119 7 301 3.2 3.2 0.00 0.00 0.00 96 1014.9
20260510102615 6 279 0.0 0.0 0.00 0.00 0.00 96 1015.0
20260510102110 6 277 0.0 0.0 0.00 0.00 0.00 96 1015.0
20260510101609 6 272 0.0 0.0 0.00 0.00 0.00 96 1014.7
20260510101107 6 275 0.0 0.0 0.00 0.00 0.00 96 1014.9
20260510100603 7 282 0.0 0.0 0.00 0.00 0.00 96 1014.6
20260510100100 7 284 0.0 0.0 0.00 0.00 0.00 96 1014.7
20260510095556 6 275 0.0 0.0 0.00 0.00 0.00 96 1014.5
20260510095055 6 271 0.0 0.0 0.00 0.00 0.00 96 1014.6
20260510094550 7 228 0.0 0.0 0.00 0.00 0.00 96 1014.7
20260510094046 7 267 0.0 0.0 0.00 0.00 0.00 96 1014.5
20260510093542 7 269 0.0 0.0 0.00 0.00 0.00 96 1014.7
20260510093039 7 278 0.0 0.0 0.00 0.00 0.00 96 1014.3
20260510092536 7 282 0.0 0.0 0.00 0.00 0.00 96 1014.2
20260510092035 7 287 0.0 0.0 0.00 0.00 0.00 96 1014.4
20260510091532 7 274 0.0 0.0 0.00 0.00 0.00 95 1014.2
20260510091028 7 288 0.0 0.0 0.00 0.00 0.00 95 1014.1
20260510090526 7 285 0.0 1.6 0.00 0.00 0.00 95 1013.9
20260510090021 7 283 1.6 1.6 0.00 0.00 0.00 95 1013.9
20260510085521 8 294 1.6 1.6 0.00 0.00 0.00 95 1014.1
20260510085017 8 298 3.2 3.2 0.00 0.00 0.00 96 1014.0
20260510084514 8 285 0.0 1.6 0.00 0.00 0.00 96 1013.9
20260510084011 7 296 3.2 3.2 0.00 0.00 0.00 96 1013.8
20260510083508 8 271 0.0 0.0 0.00 0.00 0.00 96 1013.9
20260510083003 8 297 1.6 3.2 0.00 0.00 0.00 96 1013.7
20260510082501 8 284 1.6 3.2 0.00 0.00 0.00 96 1013.7
20260510082001 8 287 1.6 3.2 0.00 0.00 0.00 96 1013.8
20260510081456 8 297 1.6 1.6 0.00 0.00 0.00 96 1013.7
20260510080953 8 298 3.2 3.2 0.00 0.00 0.00 96 1013.8
20260510080451 8 305 4.8 4.8 0.00 0.00 0.00 96 1013.8
20260510075948 8 286 3.2 4.8 0.00 0.00 0.00 96 1013.8
20260510075446 8 312 3.2 3.2 0.00 0.00 0.00 96 1013.6
20260510074943 8 309 1.6 1.6 0.00 0.00 0.00 96 1013.4
20260510074440 8 295 3.2 3.2 0.00 0.00 0.00 96 1013.6
20260510073936 8 294 1.6 1.6 0.00 0.00 0.00 96 1013.6
20260510073432 8 288 0.0 1.6 0.00 0.00 0.00 96 1013.4
20260510072928 8 275 0.0 0.0 0.00 0.00 0.00 96 1013.5
20260510072426 8 269 0.0 0.0 0.00 0.00 0.00 95 1013.4
20260510071920 8 301 1.6 3.2 0.00 0.00 0.00 95 1013.3
20260510071418 8 296 3.2 3.2 0.00 0.00 0.00 95 1013.3
20260510070916 8 298 3.2 3.2 0.00 0.00 0.00 95 1013.3
20260510070413 8 311 1.6 3.2 0.00 0.00 0.00 95 1013.3
20260510065908 8 293 3.2 3.2 0.00 0.00 0.00 94 1013.1
20260510065404 8 288 1.6 1.6 0.00 0.00 0.00 94 1013.3
20260510064901 8 261 0.0 0.0 0.00 0.00 0.00 94 1013.1
20260510064359 8 260 0.0 0.0 0.00 0.00 0.00 94 1013.2
20260510063855 9 307 0.0 0.0 0.00 0.00 0.00 94 1013.0
20260510063352 9 272 0.0 0.0 0.00 0.00 0.00 94 1012.9
20260510062849 9 292 1.6 1.6 0.00 0.00 0.00 94 1013.3
20260510062349 9 277 0.0 0.0 0.00 0.00 0.00 94 1013.2
20260510061845 9 278 0.0 1.6 0.00 0.00 0.00 94 1013.2
20260510061341 9 282 0.0 1.6 0.00 0.00 0.00 93 1013.2
20260510060837 9 294 1.6 1.6 0.00 0.00 0.00 93 1013.1
20260510060335 9 293 0.0 1.6 0.00 0.00 0.00 93 1013.0
20260510055832 9 281 0.0 1.6 0.00 0.00 0.00 93 1013.0
20260510055330 10 280 0.0 0.0 0.00 0.00 0.00 92 1013.0
20260510054825 10 269 0.0 0.0 0.00 0.00 0.00 92 1013.1
20260510054321 10 268 0.0 0.0 0.00 0.00 0.00 92 1013.3
20260510053816 10 286 1.6 1.6 0.00 0.00 0.00 92 1013.3
20260510053312 10 320 3.2 3.2 0.00 0.00 0.00 92 1013.5
20260510052808 10 303 3.2 3.2 0.00 0.00 0.00 92 1013.1
20260510052306 10 297 4.8 4.8 0.00 0.00 0.00 92 1013.3
20260510051800 10 296 4.8 4.8 0.00 0.00 0.00 93 1013.0
20260510051257 10 312 3.2 3.2 0.00 0.00 0.00 92 1013.1
20260510050754 10 321 3.2 3.2 0.00 0.00 0.00 93 1013.1
20260510050251 10 275 0.0 0.0 0.00 0.00 0.00 92 1013.1
20260510045747 10 232 0.0 1.6 0.00 0.00 0.00 92 1013.3
20260510045244 10 302 0.0 1.6 0.00 0.00 0.00 92 1013.1
20260510044740 10 314 3.2 3.2 0.00 0.00 0.00 92 1012.9
20260510044239 11 303 4.8 4.8 0.00 0.00 0.00 91 1013.2
20260510043733 11 300 4.8 4.8 0.00 0.00 0.00 92 1013.0
20260510043231 10 282 0.0 1.6 0.00 0.00 0.00 92 1013.1
20260510042729 11 266 0.0 0.0 0.00 0.00 0.00 91 1013.1
20260510042224 11 269 0.0 0.0 0.00 0.00 0.00 91 1013.3
20260510041721 11 270 0.0 1.6 0.00 0.00 0.00 91 1013.1
20260510041218 11 271 0.0 0.0 0.00 0.00 0.00 91 1013.1
20260510040715 11 306 1.6 1.6 0.00 0.00 0.00 90 1013.1
20260510040212 11 287 1.6 1.6 0.00 0.00 0.00 89 1013.3
20260510035707 11 314 1.6 1.6 0.00 0.00 0.00 89 1013.3
20260510035203 11 299 1.6 1.6 0.00 0.00 0.00 88 1013.5
20260510034659 12 294 1.6 1.6 0.00 0.00 0.00 87 1013.4
20260510034156 12 254 0.0 1.6 0.00 0.00 0.00 86 1013.2
20260510033652 12 293 1.6 1.6 0.00 0.00 0.00 85 1013.0
20260510033150 13 304 4.8 4.8 0.00 0.00 0.00 83 1013.1
20260510032647 12 300 4.8 4.8 0.00 0.00 0.00 84 1013.1
20260510032142 12 289 0.0 1.6 0.00 0.00 0.00 86 1013.0
20260510031637 12 231 3.2 3.2 0.00 0.00 0.00 88 1013.2
20260510031135 12 285 1.6 3.2 0.00 0.00 0.00 87 1013.0
20260510030629 12 299 1.6 1.6 0.00 0.00 0.00 85 1013.1
20260510030127 12 273 0.0 1.6 0.00 0.00 0.00 86 1013.0
20260510025624 12 288 0.0 0.0 0.00 0.00 0.00 86 1012.9
20260510025121 13 289 0.0 1.6 0.00 0.00 0.00 84 1012.9
20260510024618 13 271 0.0 0.0 0.00 0.00 0.00 83 1012.6
20260510024114 13 290 1.6 1.6 0.00 0.00 0.00 86 1012.8
20260510023610 13 270 0.0 0.0 0.00 0.00 0.00 86 1012.9
20260510023108 13 274 0.0 0.0 0.00 0.00 0.00 86 1012.5
20260510022607 13 274 0.0 0.0 0.00 0.00 0.00 86 1012.6
20260510022102 13 289 0.0 1.6 0.00 0.00 0.00 86 1012.7
20260510021558 14 277 0.0 0.0 0.00 0.00 0.00 84 1012.5
20260510021056 14 270 0.0 0.0 0.00 0.00 0.00 84 1012.4
20260510020549 14 289 3.2 3.2 0.00 0.00 0.00 84 1012.0
20260510020046 14 272 0.0 0.0 0.00 0.00 0.00 85 1011.9
20260510015541 14 256 0.0 0.0 0.00 0.00 0.00 84 1011.9
20260510015038 15 253 0.0 0.0 0.00 0.00 0.00 84 1011.7
20260510014534 15 270 0.0 0.0 0.00 0.00 0.00 82 1011.5
20260510014031 15 275 1.6 1.6 0.00 0.00 0.00 82 1011.5
20260510013526 15 295 1.6 1.6 0.00 0.00 0.00 82 1011.4
20260510013022 15 291 1.6 1.6 0.00 0.00 0.00 83 1011.3
20260510012516 15 259 0.0 0.0 0.00 0.00 0.00 82 1011.4
20260510012012 16 78 1.6 3.2 0.00 0.00 0.00 82 1011.2
20260510011508 16 202 0.0 1.6 0.00 0.00 0.00 78 1011.1
20260510011003 17 204 0.0 1.6 0.00 0.00 0.00 72 1010.8
20260510010501 17 260 0.0 1.6 0.00 0.00 0.00 70 1010.8
20260510005957 17 257 0.0 1.6 0.00 0.00 0.00 72 1011.0
20260510005453 17 258 1.6 1.6 0.00 0.00 0.00 73 1011.0
20260510004951 17 278 0.0 0.0 0.00 0.00 0.00 74 1010.8
20260510004448 17 227 1.6 3.2 0.00 0.00 0.00 73 1010.7
20260510003946 17 38 1.6 3.2 0.00 0.00 0.00 73 1010.5
20260510003443 18 83 3.2 3.2 0.00 0.00 0.00 64 1010.5
20260510002943 20 283 0.0 0.0 0.00 0.00 0.00 54 1010.3
20260510002439 20 272 1.6 1.6 0.00 0.00 0.00 55 1010.3
20260510001936 20 263 3.2 3.2 0.00 0.00 0.00 52 1010.2
20260510001433 20 260 4.8 4.8 0.00 0.00 0.00 51 1010.0
20260510000931 21 260 1.6 1.6 0.00 0.00 0.00 57 1010.1
20260510000426 21 259 4.8 4.8 0.00 0.00 0.00 49 1010.0
20260509235923 21 260 1.6 3.2 0.00 0.00 0.00 50 1009.8
20260509235420 22 265 1.6 1.6 0.00 0.00 0.00 55 1009.9
20260509234916 22 263 0.0 0.0 0.00 0.00 0.00 57 1009.8
20260509234413 23 232 1.6 1.6 0.00 0.00 0.00 54 1009.6
20260509233911 23 271 0.0 0.0 0.00 0.00 0.00 50 1009.7
20260509233408 23 265 0.0 0.0 0.00 0.00 0.00 53 1009.5
20260509232904 22 264 0.0 0.0 0.00 0.00 0.00 54 1009.7
20260509232402 23 282 0.0 0.0 0.00 0.00 0.00 53 1009.5
20260509231857 23 270 0.0 0.0 0.00 0.00 0.00 53 1009.5
20260509231355 23 253 3.2 3.2 0.00 0.00 0.00 53 1009.6
20260509230853 23 266 1.6 3.2 0.00 0.00 0.00 51 1009.4
20260509230349 23 227 3.2 3.2 0.00 0.00 0.00 53 1009.4
20260509225844 23 261 0.0 1.6 0.00 0.00 0.00 51 1009.6
20260509225342 23 273 1.6 1.6 0.00 0.00 0.00 51 1009.5
20260509224837 22 269 1.6 3.2 0.00 0.00 0.00 54 1009.6
20260509224333 22 268 3.2 3.2 0.00 0.00 0.00 54 1009.5
20260509223831 22 269 8.0 9.7 0.00 0.00 0.00 53 1009.5
20260509223327 22 260 6.4 8.0 0.00 0.00 0.00 53 1009.5
20260509222825 22 253 4.8 4.8 0.00 0.00 0.00 53 1009.6
20260509222320 22 242 8.0 11.3 0.00 0.00 0.00 54 1009.7
20260509221816 22 195 1.6 4.8 0.00 0.00 0.00 53 1009.5
20260509221314 23 186 6.4 8.0 0.00 0.00 0.00 52 1009.7
20260509220814 23 213 4.8 8.0 0.00 0.00 0.00 52 1009.5
20260509220310 23 234 3.2 3.2 0.00 0.00 0.00 53 1009.5
20260509215806 23 160 8.0 9.7 0.00 0.00 0.00 53 1009.5
20260509215305 22 177 1.6 1.6 0.00 0.00 0.00 54 1009.5
20260509214759 23 217 4.8 4.8 0.00 0.00 0.00 53 1009.3
20260509214257 22 254 3.2 3.2 0.00 0.00 0.00 54 1009.4
20260509213753 23 193 4.8 8.0 0.00 0.00 0.00 52 1009.3
20260509213249 22 214 1.6 3.2 0.00 0.00 0.00 52 1009.5
20260509212747 22 261 3.2 4.8 0.00 0.00 0.00 53 1009.4
20260509212244 22 187 6.4 8.0 0.00 0.00 0.00 53 1009.4
20260509211739 22 194 6.4 8.0 0.00 0.00 0.00 53 1009.4
20260509211236 22 176 6.4 8.0 0.00 0.00 0.00 54 1009.3
20260509210732 22 165 8.0 9.7 0.00 0.00 0.00 53 1009.5
20260509210231 23 170 8.0 9.7 0.00 0.00 0.00 51 1009.2
20260509205730 23 266 1.6 1.6 0.00 0.00 0.00 52 1009.2
20260509205230 22 254 3.2 4.8 0.00 0.00 0.00 52 1009.4
20260509204726 22 260 0.0 1.6 0.00 0.00 0.00 53 1009.3
20260509204223 22 193 6.4 8.0 0.00 0.00 0.00 53 1009.4
20260509203718 22 172 6.4 9.7 0.00 0.00 0.00 53 1009.2
20260509203217 22 203 1.6 3.2 0.00 0.00 0.00 53 1009.2
20260509202712 22 144 6.4 8.0 0.00 0.00 0.00 54 1009.0
20260509202207 22 178 6.4 9.7 0.00 0.00 0.00 54 1009.3
20260509201703 22 278 1.6 3.2 0.00 0.00 0.00 53 1009.3
20260509201200 22 267 1.6 1.6 0.00 0.00 0.00 54 1009.3
20260509200656 22 268 3.2 3.2 0.00 0.00 0.00 53 1009.1
20260509200151 22 240 1.6 3.2 0.00 0.00 0.00 52 1009.0
20260509195648 21 224 4.8 4.8 0.00 0.00 0.00 52 1009.1
20260509195143 21 195 6.4 9.7 0.00 0.00 0.00 52 1009.3
20260509194642 21 217 3.2 4.8 0.00 0.00 0.00 52 1009.2
20260509194140 22 232 8.0 11.3 0.00 0.00 0.00 52 1009.4
20260509193635 22 145 6.4 8.0 0.00 0.00 0.00 53 1009.1
20260509193131 22 171 16.1 17.7 0.00 0.00 0.00 53 1009.3
20260509192628 22 216 9.7 11.3 0.00 0.00 0.00 52 1009.4
20260509192123 22 180 8.0 11.3 0.00 0.00 0.00 51 1009.4
20260509191623 22 254 4.8 4.8 0.00 0.00 0.00 50 1009.5
20260509191120 22 256 8.0 11.3 0.00 0.00 0.00 51 1009.6
20260509190617 22 180 1.6 1.6 0.00 0.00 0.00 51 1009.6
20260509190114 22 66 3.2 3.2 0.00 0.00 0.00 50 1009.5
20260509185612 22 145 8.0 11.3 0.00 0.00 0.00 51 1009.6
20260509185108 22 134 3.2 4.8 0.00 0.00 0.00 50 1009.8
20260509184606 22 221 1.6 1.6 0.00 0.00 0.00 51 1009.9
20260509184102 21 224 8.0 9.7 0.00 0.00 0.00 53 1010.1
20260509183558 21 246 8.0 9.7 0.00 0.00 0.00 53 1010.1
20260509183054 21 228 1.6 3.2 0.00 0.00 0.00 53 1010.2
20260509182550 21 274 0.0 0.0 0.00 0.00 0.00 54 1010.0
20260509182047 21 259 4.8 4.8 0.00 0.00 0.00 55 1010.3
20260509181546 21 256 4.8 8.0 0.00 0.00 0.00 55 1010.2
20260509181042 20 254 4.8 4.8 0.00 0.00 0.00 56 1010.5
20260509180538 20 237 4.8 4.8 0.00 0.00 0.00 56 1010.4
20260509180036 20 240 8.0 8.0 0.00 0.00 0.00 56 1010.3
20260509175531 20 233 1.6 1.6 0.00 0.00 0.00 57 1010.4
20260509175028 20 277 3.2 3.2 0.00 0.00 0.00 57 1010.2
20260509174525 20 175 1.6 3.2 0.00 0.00 0.00 56 1010.3
20260509174020 20 144 6.4 8.0 0.00 0.00 0.00 57 1010.2
20260509173514 20 252 4.8 4.8 0.00 0.00 0.00 57 1010.4
20260509173011 20 159 12.9 14.5 0.00 0.00 0.00 57 1010.7
20260509172508 21 261 11.3 16.1 0.00 0.00 0.00 55 1010.7
20260509172003 21 220 11.3 12.9 0.00 0.00 0.00 56 1010.6
20260509171500 21 248 19.3 25.7 0.00 0.00 0.00 53 1010.8
20260509170956 21 251 14.5 16.1 0.00 0.00 0.00 59 1011.0
20260509170452 20 174 11.3 12.9 0.00 0.00 0.00 59 1011.0
20260509165948 20 175 8.0 11.3 0.00 0.00 0.00 59 1011.1
20260509165447 20 182 12.9 16.1 0.00 0.00 0.00 59 1011.1
20260509164943 20 245 3.2 4.8 0.00 0.00 0.00 59 1011.4
20260509164439 20 213 8.0 12.9 0.00 0.00 0.00 59 1011.3
20260509163935 20 213 4.8 8.0 0.00 0.00 0.00 60 1011.5
20260509163433 19 165 9.7 11.3 0.00 0.00 0.00 59 1011.3
20260509162931 20 205 9.7 12.9 0.00 0.00 0.00 60 1011.4
20260509162431 20 254 6.4 8.0 0.00 0.00 0.00 61 1011.2
20260509161926 20 170 9.7 11.3 0.00 0.00 0.00 61 1011.1
20260509161423 19 219 4.8 4.8 0.00 0.00 0.00 62 1011.0
20260509160918 18 150 8.0 9.7 0.00 0.00 0.00 64 1011.1
20260509160414 18 191 6.4 8.0 0.00 0.00 0.00 64 1011.1
20260509155909 18 161 6.4 8.0 0.00 0.00 0.00 66 1011.2
20260509155406 18 204 4.8 8.0 0.00 0.00 0.00 65 1011.4
20260509154903 18 178 9.7 11.3 0.00 0.00 0.00 65 1011.3
20260509154359 18 183 8.0 9.7 0.00 0.00 0.00 64 1011.4
20260509153856 18 198 4.8 8.0 0.00 0.00 0.00 65 1011.2
20260509153353 18 175 4.8 4.8 0.00 0.00 0.00 65 1011.5
20260509152850 18 231 4.8 8.0 0.00 0.00 0.00 66 1011.3
20260509152346 17 188 8.0 8.0 0.00 0.00 0.00 67 1011.4
20260509151843 17 179 4.8 8.0 0.00 0.00 0.00 66 1011.6
20260509151339 17 222 4.8 4.8 0.00 0.00 0.00 66 1011.5
20260509150838 17 158 4.8 8.0 0.00 0.00 0.00 67 1011.6
20260509150335 17 180 4.8 4.8 0.00 0.00 0.00 68 1011.6
20260509145832 16 141 1.6 3.2 0.00 0.00 0.00 68 1011.7
20260509145327 16 130 8.0 9.7 0.00 0.00 0.00 67 1011.8
20260509144823 16 133 4.8 8.0 0.00 0.00 0.00 68 1011.9
20260509144320 16 190 3.2 3.2 0.00 0.00 0.00 68 1011.8
20260509143818 16 225 3.2 3.2 0.00 0.00 0.00 68 1011.8
20260509143315 15 124 0.0 1.6 0.00 0.00 0.00 69 1011.9
20260509142811 15 165 1.6 3.2 0.00 0.00 0.00 68 1011.7
20260509142307 15 165 1.6 3.2 0.00 0.00 0.00 68 1011.8
20260509141803 15 165 1.6 3.2 0.00 0.00 0.00 68 1011.9
20260509141300 15 234 0.0 1.6 0.00 0.00 0.00 69 1011.7
20260509140756 14 116 3.2 3.2 0.00 0.00 0.00 70 1011.4
20260509140254 13 86 3.2 3.2 0.00 0.00 0.00 71 1011.7
20260509135752 13 202 1.6 3.2 0.00 0.00 0.00 73 1011.8
20260509135249 13 206 1.6 1.6 0.00 0.00 0.00 73 1011.8
20260509134746 13 269 0.0 0.0 0.00 0.00 0.00 74 1012.3
20260509134243 13 232 1.6 1.6 0.00 0.00 0.00 74 1012.4
20260509133740 13 255 0.0 1.6 0.00 0.00 0.00 73 1012.4
20260509133237 13 261 0.0 0.0 0.00 0.00 0.00 72 1012.5
20260509132736 12 263 0.0 0.0 0.00 0.00 0.00 73 1012.6
20260509132234 11 261 0.0 0.0 0.00 0.00 0.00 77 1012.7
20260509131730 11 259 0.0 0.0 0.00 0.00 0.00 77 1012.6
20260509131227 11 257 0.0 1.6 0.00 0.00 0.00 78 1012.7
20260509130723 11 274 0.0 1.6 0.00 0.00 0.00 79 1012.7
20260509130219 10 285 0.0 0.0 0.00 0.00 0.00 81 1012.5
20260509125715 10 270 0.0 0.0 0.00 0.00 0.00 82 1012.5
20260509125213 10 283 0.0 0.0 0.00 0.00 0.00 82 1012.6
20260509124709 10 293 0.0 1.6 0.00 0.00 0.00 82 1012.8
20260509124206 10 291 0.0 0.0 0.00 0.00 0.00 82 1012.8
20260509123704 9 291 0.0 1.6 0.00 0.00 0.00 82 1012.9
20260509123201 9 295 0.0 0.0 0.00 0.00 0.00 85 1013.2
20260509122656 9 310 0.0 0.0 0.00 0.00 0.00 85 1013.1
20260509122153 8 311 0.0 0.0 0.00 0.00 0.00 86 1013.1
20260509121650 8 255 1.6 1.6 0.00 0.00 0.00 86 1012.9
20260509121148 8 72 1.6 3.2 0.00 0.00 0.00 86 1013.2
20260509120646 8 279 0.0 0.0 0.00 0.00 0.00 87 1013.1
20260509120143 8 268 0.0 0.0 0.00 0.00 0.00 88 1013.3
20260509115641 8 254 0.0 0.0 0.00 0.00 0.00 89 1013.0
20260509115138 7 235 0.0 0.0 0.00 0.00 0.00 90 1013.2
20260509114636 7 235 1.6 1.6 0.00 0.00 0.00 91 1013.1
20260509114135 7 282 0.0 0.0 0.00 0.00 0.00 91 1012.9
20260509113633 7 42 0.0 1.6 0.00 0.00 0.00 91 1012.7
20260509113130 7 194 1.6 1.6 0.00 0.00 0.00 91 1012.9
20260509112626 7 211 1.6 1.6 0.00 0.00 0.00 91 1012.8
20260509112124 7 250 0.0 0.0 0.00 0.00 0.00 92 1013.0
20260509111620 7 279 0.0 0.0 0.00 0.00 0.00 92 1013.0
20260509111117 6 259 0.0 0.0 0.00 0.00 0.00 92 1012.7
20260509110614 6 298 3.2 3.2 0.00 0.00 0.00 92 1012.8
20260509110112 6 294 1.6 1.6 0.00 0.00 0.00 92 1012.6
20260509105610 6 296 3.2 3.2 0.00 0.00 0.00 92 1012.9
20260509105107 6 288 1.6 1.6 0.00 0.00 0.00 92 1012.8